Location: Joplin, MO
(37.0842°N, 94.5133°W)
Time: 17:25:46
(UTC+02:00)

Transit 2A - Pass Details

Date: 07 April 2023
Orbit: 591 x 964 km, 66.7° (Epoch: 03 June)

Event Time Altitude Azimuth Distance (km) Brightness Sun altitude
Exits shadow 11:11:19 25° 330° (NNW) 1,693 7.8 -30.7°
Drops below altitude 10° 11:15:10 10° 7° (N) 2,597 9.2 -30.1°
Sets 11:18:13 0° 19° (NNE) 3,588 10.3 -29.6°
